When you browse on this site, cookies collect data to enhance your experience and personalize the content and advertising you see.
Visit our Privacy Policy to learn more. By continuing to use the site, you agree to this use of cookies and data.
  • en Suisse
  • Liste des pays
  • À 7 jours
  • Température de l'eau
  • Carte météo
  • Widgets météo
  • user-avatar
    Se connecter

    Météo par heure à Chamonix

    Ce jour, 5 Juin, Vendredi

    Heure Température Précipitation Vent Pression Humidité
    00:00 +7°C° 0 mm 1 m/s 641 mmHg 98%
    01:00 +7°C° 0.8 mm 1 m/s 641 mmHg 98%
    02:00 +6°C° 0.8 mm 2 m/s 641 mmHg 98%
    03:00 +6°C° 0.8 mm 2 m/s 641 mmHg 98%
    04:00 +6°C° 0.3 mm 2 m/s 641 mmHg 98%
    05:00 +6°C° 0.3 mm 2 m/s 641 mmHg 97%
    06:00 +7°C° 0 mm 2 m/s 642 mmHg 97%
    07:00 +7°C° 0.3 mm 2 m/s 642 mmHg 95%
    08:00 +8°C° 0.3 mm 2 m/s 642 mmHg 92%
    09:00 +8°C° 0.3 mm 2 m/s 643 mmHg 90%
    10:00 +9°C° 0.2 mm 2 m/s 643 mmHg 86%
    11:00 +10°C° 0.2 mm 2 m/s 644 mmHg 83%
    12:00 +10°C° 0.2 mm 2 m/s 644 mmHg 79%
    13:00 +10°C° 0.1 mm 2 m/s 644 mmHg 82%
    14:00 +9°C° 0.1 mm 2 m/s 644 mmHg 85%
    15:00 +9°C° 0.1 mm 2 m/s 644 mmHg 88%
    16:00 +9°C° 0.2 mm 2 m/s 644 mmHg 90%
    17:00 +9°C° 0.2 mm 1 m/s 644 mmHg 92%
    18:00 +9°C° 0.2 mm 1 m/s 645 mmHg 93%
    19:00 +9°C° 0.1 mm 1 m/s 645 mmHg 93%
    20:00 +9°C° 0.1 mm 1 m/s 645 mmHg 93%
    21:00 +9°C° 0.1 mm 1 m/s 646 mmHg 93%
    22:00 +9°C° 0 mm 1 m/s 646 mmHg 93%
    23:00 +9°C° 0 mm 1 m/s 646 mmHg 93%

    Demain, 6 Juin, Samedi

    Heure Température Précipitation Vent Pression Humidité
    00:00 +8°C° 0 mm 1 m/s 646 mmHg 93%
    01:00 +8°C° 0 mm 1 m/s 646 mmHg 93%
    02:00 +7°C° 0 mm 1 m/s 645 mmHg 93%
    03:00 +7°C° 0 mm 1 m/s 645 mmHg 93%
    04:00 +8°C° 0 mm 1 m/s 646 mmHg 92%
    05:00 +9°C° 0 mm 1 m/s 646 mmHg 91%
    06:00 +10°C° 0 mm 1 m/s 646 mmHg 90%
    07:00 +11°C° 0 mm 1 m/s 647 mmHg 86%
    08:00 +12°C° 0 mm 1 m/s 647 mmHg 82%
    09:00 +13°C° 0 mm 1 m/s 647 mmHg 78%
    10:00 +14°C° 0.1 mm 1 m/s 647 mmHg 74%
    11:00 +15°C° 0.1 mm 2 m/s 647 mmHg 69%
    12:00 +16°C° 0.1 mm 2 m/s 648 mmHg 65%
    13:00 +16°C° 0.3 mm 2 m/s 647 mmHg 67%
    14:00 +16°C° 0.3 mm 2 m/s 647 mmHg 69%
    15:00 +16°C° 0.3 mm 2 m/s 647 mmHg 71%
    16:00 +15°C° 0.5 mm 2 m/s 647 mmHg 77%
    17:00 +14°C° 0.5 mm 1 m/s 647 mmHg 83%
    18:00 +13°C° 0.5 mm 1 m/s 646 mmHg 90%
    19:00 +12°C° 0.1 mm 1 m/s 646 mmHg 91%
    20:00 +11°C° 0.1 mm 1 m/s 646 mmHg 93%
    21:00 +10°C° 0.1 mm 1 m/s 646 mmHg 94%
    22:00 +10°C° 0.2 mm 1 m/s 646 mmHg 94%
    23:00 +10°C° 0.2 mm 1 m/s 646 mmHg 94%

    Après-demain, 7 Juin, Dimanche

    Heure Température Précipitation Vent Pression Humidité
    00:00 +10°C° 0.2 mm 1 m/s 646 mmHg 94%
    01:00 +10°C° 0.4 mm 1 m/s 646 mmHg 95%
    02:00 +9°C° 0.4 mm 0 m/s 646 mmHg 96%
    03:00 +9°C° 0.4 mm 0 m/s 646 mmHg 97%
    04:00 +9°C° 0.8 mm 0 m/s 646 mmHg 97%
    05:00 +10°C° 0.8 mm 1 m/s 646 mmHg 97%
    06:00 +10°C° 0.8 mm 1 m/s 646 mmHg 97%
    07:00 +10°C° 1.4 mm 1 m/s 646 mmHg 97%
    08:00 +10°C° 1.4 mm 1 m/s 646 mmHg 97%
    09:00 +10°C° 1.4 mm 1 m/s 646 mmHg 97%
    10:00 +10°C° 0.6 mm 1 m/s 646 mmHg 96%
    11:00 +10°C° 0.6 mm 1 m/s 646 mmHg 95%
    12:00 +11°C° 0.6 mm 1 m/s 646 mmHg 94%
    13:00 +11°C° 0.3 mm 1 m/s 646 mmHg 92%
    14:00 +12°C° 0.3 mm 1 m/s 646 mmHg 90%
    15:00 +12°C° 0.3 mm 1 m/s 647 mmHg 88%
    16:00 +12°C° 0.3 mm 1 m/s 647 mmHg 90%
    17:00 +11°C° 0.3 mm 1 m/s 646 mmHg 92%
    18:00 +11°C° 0.3 mm 1 m/s 646 mmHg 93%
    19:00 +10°C° 0.1 mm 1 m/s 647 mmHg 95%
    20:00 +10°C° 0.1 mm 1 m/s 647 mmHg 96%
    21:00 +9°C° 0.1 mm 1 m/s 647 mmHg 97%
    22:00 +9°C° 0 mm 1 m/s 647 mmHg 97%
    23:00 +8°C° 0 mm 1 m/s 647 mmHg 97%

    8 Juin, Lundi

    Heure Température Précipitation Vent Pression Humidité
    00:00 +8°C° 0 mm 1 m/s 647 mmHg 97%
    01:00 +8°C° 0 mm 1 m/s 647 mmHg 97%
    02:00 +8°C° 0 mm 1 m/s 647 mmHg 97%
    03:00 +7°C° 0 mm 1 m/s 647 mmHg 97%
    04:00 +8°C° 0 mm 1 m/s 647 mmHg 97%
    05:00 +8°C° 0 mm 1 m/s 647 mmHg 96%
    06:00 +9°C° 0 mm 1 m/s 647 mmHg 95%
    07:00 +9°C° 0.1 mm 1 m/s 648 mmHg 93%
    08:00 +10°C° 0.1 mm 1 m/s 648 mmHg 90%
    09:00 +11°C° 0.1 mm 1 m/s 648 mmHg 87%
    10:00 +12°C° 0.1 mm 1 m/s 648 mmHg 82%
    11:00 +13°C° 0.1 mm 1 m/s 648 mmHg 77%
    12:00 +14°C° 0.1 mm 1 m/s 649 mmHg 72%
    13:00 +14°C° 0.5 mm 1 m/s 648 mmHg 75%
    14:00 +14°C° 0.5 mm 1 m/s 648 mmHg 78%
    15:00 +13°C° 0.5 mm 1 m/s 648 mmHg 82%
    16:00 +13°C° 0.5 mm 1 m/s 648 mmHg 85%
    17:00 +12°C° 0.5 mm 1 m/s 648 mmHg 87%
    18:00 +12°C° 0.5 mm 1 m/s 648 mmHg 90%
    19:00 +11°C° 0.5 mm 1 m/s 648 mmHg 92%
    20:00 +9°C° 0.5 mm 0 m/s 648 mmHg 94%
    21:00 +9°C° 0.5 mm 0 m/s 648 mmHg 95%
    22:00 +8°C° 0.4 mm 0 m/s 648 mmHg 96%
    23:00 +9°C° 0.4 mm 1 m/s 648 mmHg 96%

    9 Juin, Mardi

    Heure Température Précipitation Vent Pression Humidité
    00:00 +9°C° 0.4 mm 1 m/s 648 mmHg 96%
    01:00 +8°C° 0 mm 1 m/s 648 mmHg 96%
    02:00 +8°C° 0 mm 1 m/s 648 mmHg 96%
    03:00 +7°C° 0 mm 1 m/s 648 mmHg 96%
    04:00 +8°C° 0 mm 1 m/s 648 mmHg 94%
    05:00 +9°C° 0 mm 1 m/s 648 mmHg 93%
    06:00 +9°C° 0 mm 1 m/s 648 mmHg 92%
    07:00 +10°C° 0.1 mm 1 m/s 649 mmHg 89%
    08:00 +11°C° 0.1 mm 1 m/s 649 mmHg 86%
    09:00 +12°C° 0.1 mm 1 m/s 649 mmHg 83%
    10:00 +12°C° 0.5 mm 1 m/s 649 mmHg 83%
    11:00 +13°C° 0.5 mm 2 m/s 649 mmHg 83%
    12:00 +13°C° 0.5 mm 2 m/s 650 mmHg 83%
    13:00 +13°C° 0.9 mm 2 m/s 649 mmHg 85%
    14:00 +13°C° 0.9 mm 2 m/s 649 mmHg 86%
    15:00 +13°C° 0.9 mm 2 m/s 649 mmHg 88%
    16:00 +12°C° 0.8 mm 2 m/s 649 mmHg 90%
    17:00 +12°C° 0.8 mm 1 m/s 649 mmHg 92%
    18:00 +11°C° 0.8 mm 1 m/s 649 mmHg 94%
    19:00 +11°C° 0.2 mm 1 m/s 649 mmHg 95%
    20:00 +10°C° 0.2 mm 1 m/s 649 mmHg 96%
    21:00 +9°C° 0.2 mm 1 m/s 650 mmHg 98%
    22:00 +9°C° 0.1 mm 1 m/s 650 mmHg 98%
    23:00 +9°C° 0.1 mm 1 m/s 649 mmHg 98%

    10 Juin, Mercredi

    Heure Température Précipitation Vent Pression Humidité
    00:00 +9°C° 0.1 mm 1 m/s 649 mmHg 98%
    01:00 +9°C° 0.3 mm 1 m/s 649 mmHg 98%
    02:00 +9°C° 0.3 mm 1 m/s 649 mmHg 98%
    03:00 +8°C° 0.3 mm 0 m/s 649 mmHg 98%
    04:00 +8°C° 0.3 mm 0 m/s 649 mmHg 97%
    05:00 +9°C° 0.3 mm 1 m/s 649 mmHg 97%
    06:00 +9°C° 0.3 mm 1 m/s 649 mmHg 96%
    07:00 +10°C° 0.2 mm 1 m/s 649 mmHg 95%
    08:00 +10°C° 0.2 mm 1 m/s 650 mmHg 95%
    09:00 +10°C° 0.2 mm 1 m/s 650 mmHg 94%
    10:00 +11°C° 0.3 mm 1 m/s 650 mmHg 91%
    11:00 +12°C° 0.3 mm 1 m/s 650 mmHg 88%
    12:00 +13°C° 0.3 mm 2 m/s 651 mmHg 84%
    13:00 +13°C° 0.6 mm 2 m/s 650 mmHg 86%
    14:00 +13°C° 0.6 mm 2 m/s 650 mmHg 87%
    15:00 +13°C° 0.6 mm 2 m/s 650 mmHg 89%
    16:00 +13°C° 0.6 mm 1 m/s 650 mmHg 91%
    17:00 +12°C° 0.6 mm 1 m/s 650 mmHg 93%
    18:00 +12°C° 0.6 mm 1 m/s 650 mmHg 96%
    19:00 +11°C° 0.1 mm 1 m/s 650 mmHg 97%
    20:00 +11°C° 0.1 mm 1 m/s 651 mmHg 97%
    21:00 +10°C° 0.1 mm 1 m/s 651 mmHg 98%
    22:00 +9°C° 0 mm 0 m/s 651 mmHg 98%
    23:00 +9°C° 0 mm 0 m/s 651 mmHg 98%
    Voir plus